Location: Mentone
(34.5413°N, 85.5351°W)
Time: 00:11:41
(UTC-06:00)

Amateur Radio Satellites - All Passes

Search period start: 13 December 2017 23:41
Search period end: 14 December 2017 23:41
Location: Mentone, 34.5413°N, 85.5351°W

Satellite Date Start Highest point End Downlink Frequencies (MHz)
Time Altitude Azimuth
50 SAT 13 Dec 23:49:24 23:50:45 12° 69° (ENE) 23:52:04 437.505
RS-15 13 Dec 23:49:36 00:01:22 86° 61° (ENE) 00:12:30 29.354- 29.394
SPROUT 13 Dec 23:50:36 23:54:41 46° 261° (W) 23:58:46 437.525
UKube-1 13 Dec 23:51:06 23:51:57 10° 65° (ENE) 23:52:48 .
NANOSAT C BR1 14 Dec 00:00:20 00:04:29 63° 284° (WNW) 00:08:39 145.865
DX 1 14 Dec 00:01:49 00:05:23 25° 70° (ENE) 00:08:56 434.975-435.025
EO-79 14 Dec 00:15:16 00:19:07 36° 287° (WNW) 00:22:59 145.935-145.965
Oscar 19 14 Dec 00:16:29 00:20:14 20° 95° (E) 00:23:57 437.125/150
SO-50 14 Dec 00:17:48 00:22:28 69° 59° (ENE) 00:27:11 436.795
BUGSAT 1 14 Dec 00:18:57 00:22:39 34° 98° (E) 00:26:23 437.445
FALCONSAT 3 14 Dec 00:20:59 00:24:40 75° 360° (N) 00:28:20 435.103
AO-91 14 Dec 00:34:27 00:37:02 20° 96° (E) 00:39:34 145.960
POLYITAN 1 14 Dec 00:38:39 00:41:45 20° 291° (WNW) 00:44:51 437.675
VELOX 1 14 Dec 00:39:30 00:43:00 23° 264° (W) 00:46:33 145.980
Gurwin Techsat 1B 14 Dec 00:50:20 00:55:02 31° 97° (E) 00:59:42 435.225
MOZHAYETS 4 14 Dec 00:53:46 00:54:55 11° 65° (ENE) 00:56:04
BEESAT 14 Dec 01:06:39 01:08:06 11° 64° (ENE) 01:09:32 436.000
DUCHIFAT 1 14 Dec 01:12:26 01:13:44 11° 294° (WNW) 01:15:02 145.980
50 SAT 14 Dec 01:19:49 01:22:24 23° 262° (W) 01:25:01 437.505
UKube-1 14 Dec 01:23:09 01:27:24 59° 259° (WSW) 01:31:41 .
ITUPSAT 1 14 Dec 01:32:00 01:35:34 21° 68° (ENE) 01:39:08 437.325
DX 1 14 Dec 01:37:53 01:41:26 24° 263° (W) 01:44:59 434.975-435.025
YUBILEINY 14 Dec 01:54:42 02:02:38 39° 87° (E) 02:10:35 435.215
Oscar 19 14 Dec 01:54:46 01:59:38 41° 288° (WNW) 02:04:29 437.125/150
BUGSAT 1 14 Dec 01:55:23 01:57:41 15° 292° (WNW) 01:59:59 437.445
FALCONSAT 3 14 Dec 02:00:07 02:03:46 66° 196° (SSW) 02:07:24 435.103
SO-50 14 Dec 02:01:21 02:02:21 11° 253° (WSW) 02:03:21 436.795
RS-15 14 Dec 02:04:44 02:12:05 20° 261° (W) 02:19:17 29.354- 29.394
AO-91 14 Dec 02:11:19 02:13:22 15° 291° (WNW) 02:15:22 145.960
CUBESAT XI-V 14 Dec 02:12:29 02:15:44 19° 68° (ENE) 02:18:58 437.345
MOZHAYETS 4 14 Dec 02:26:59 02:31:28 62° 259° (W) 02:36:00
Gurwin Techsat 1B 14 Dec 02:30:24 02:34:49 27° 291° (WNW) 02:39:14 435.225
BEESAT 14 Dec 02:40:32 02:45:15 66° 259° (WSW) 02:49:59 436.000
AO-7 14 Dec 02:45:46 02:53:50 49° 102° (ESE) 03:01:50 .
M-CUBED/EXP-1 PRIME 14 Dec 03:02:33 03:06:54 50° 104° (ESE) 03:10:58 437.505
ITAMSAT 1 14 Dec 03:04:58 03:09:56 45° 100° (E) 03:14:50 435.822/435.867
PCSat 14 Dec 03:05:27 03:10:09 29° 56° (NE) 03:14:50 145.827
ITUPSAT 1 14 Dec 03:08:52 03:13:08 33° 262° (W) 03:17:25 437.325
FALCONSAT 3 14 Dec 03:39:51 03:42:30 19° 209° (SSW) 03:45:09 435.103
BEESAT 3 14 Dec 03:44:45 03:45:39 11° 47° (NE) 03:46:35 437.485
CUBESAT XI-V 14 Dec 03:48:31 03:52:46 36° 262° (W) 03:57:05 437.345
YUBILEINY 14 Dec 03:51:12 03:59:17 40° 284° (WNW) 04:07:27 435.215
JUGNU 14 Dec 03:55:16 03:58:54 17° 172° (S) 04:02:32 437.505
KKS-1 14 Dec 04:21:51 04:26:18 83° 255° (WSW) 04:30:48 437.445
DOVE 4 14 Dec 04:30:52 04:35:18 68° 100° (E) 04:39:30 437.250
M-CUBED/EXP-1 PRIME 14 Dec 04:38:28 04:40:43 14° 300° (WNW) 04:42:54 437.505
AO-7 14 Dec 04:39:00 04:46:14 34° 298° (WNW) 04:53:27 .
ITAMSAT 1 14 Dec 04:45:28 04:48:59 19° 294° (WNW) 04:52:30 435.822/435.867
PCSat 14 Dec 04:48:42 04:53:29 32° 252° (WSW) 04:58:14 145.827
XW-2D 14 Dec 04:49:21 04:51:37 15° 94° (E) 04:53:52 145.860 - 145.880
NUDT-PHONESAT 14 Dec 04:57:48 04:59:02 11° 93° (E) 05:00:16 437.300
KAITUO 1B 14 Dec 04:59:44 05:01:36 13° 93° (E) 05:03:27 145.475/437.950
XW-2B 14 Dec 05:04:30 05:07:34 22° 96° (E) 05:10:36 145.730 - 145.750
STARS 14 Dec 05:06:54 05:11:16 67° 259° (WSW) 05:15:39 437.465
NO-84 14 Dec 05:13:12 05:15:33 22° 124° (SE) 05:18:00 435.350 FM
XW-2F 14 Dec 05:16:54 05:20:18 30° 97° (E) 05:23:41 145.980 - 146.000
BEESAT 3 14 Dec 05:19:42 05:23:34 61° 243° (WSW) 05:27:21 437.485
XW-2C 14 Dec 05:31:15 05:35:02 53° 100° (E) 05:38:47 145.795 - 145.815
AO-85 14 Dec 05:31:21 05:34:20 16° 49° (NE) 05:37:23 145.980
STRAND 1 14 Dec 05:32:22 05:36:25 24° 68° (ENE) 05:40:29 437.568
JUGNU 14 Dec 05:43:13 05:47:12 19° 183° (S) 05:51:12 437.505
CUTE 1.7 + AOD 2 14 Dec 05:49:30 05:52:38 19° 94° (E) 05:55:44 437.475
BEESAT 2 14 Dec 05:57:54 06:01:56 87° 67° (ENE) 06:05:52 435.950
HO-68 14 Dec 05:58:32 06:04:53 33° 98° (E) 06:11:10 435.675
CUTE-I 14 Dec 06:05:05 06:10:25 87° 103° (ESE) 06:15:43 437.470
LilacSat-2 14 Dec 06:06:56 06:10:38 44° 285° (WNW) 06:14:18 437.200
XW-2D 14 Dec 06:22:26 06:25:47 29° 287° (WNW) 06:29:07 145.860 - 145.880
FO-29 14 Dec 06:27:06 06:33:52 35° 67° (ENE) 06:40:45 435.910
NUDT-PHONESAT 14 Dec 06:29:31 06:32:58 36° 286° (WNW) 06:36:24 437.300
SRMSAT 14 Dec 06:29:44 06:33:15 16° 170° (S) 06:36:46 437.500
CUBEBUG 2 14 Dec 06:30:04 06:33:59 34° 98° (E) 06:38:00 437.445
UWE-3 14 Dec 06:31:42 06:34:51 19° 95° (E) 06:38:04 435.000/436.395/437.385
KAITUO 1B 14 Dec 06:32:14 06:35:37 31° 287° (WNW) 06:38:59 145.475/437.950
XW-2B 14 Dec 06:38:44 06:41:33 20° 289° (WNW) 06:44:22 145.730 - 145.750
NO-84 14 Dec 06:50:23 06:52:42 20° 322° (NW) 06:55:09 435.350 FM
XW-2F 14 Dec 06:51:55 06:54:05 15° 291° (WNW) 06:56:16 145.980 - 146.000
O/OREOS (USA 219) 14 Dec 06:52:39 06:55:26 16° 100° (E) 06:58:14 437.305
ZACube-1 14 Dec 06:58:04 07:01:18 20° 95° (E) 07:04:34 437.345
SEEDS 14 Dec 07:02:25 07:06:41 90° 121° (ESE) 07:10:54 437.485
AO-85 14 Dec 07:10:13 07:15:05 65° 244° (WSW) 07:20:16 145.980
STRAND 1 14 Dec 07:10:47 07:15:23 33° 262° (W) 07:19:59 437.568
XW-2A 14 Dec 07:13:09 07:16:27 45° 99° (E) 07:19:45 145.665 - 145.685
Oscar 11 14 Dec 07:18:59 07:22:04 19° 94° (E) 07:25:08 .
AAUSAT CUBESAT 2 14 Dec 07:23:09 07:27:17 62° 101° (E) 07:31:22 437.432
CUTE 1.7 + AOD 2 14 Dec 07:24:44 07:28:25 28° 288° (WNW) 07:32:05 437.475
AO-73 14 Dec 07:31:36 07:35:47 43° 99° (E) 07:40:01 145.935
JUGNU 14 Dec 07:32:44 07:35:29 13° 192° (SSW) 07:38:15 437.505
HO-68 14 Dec 07:46:00 07:52:34 40° 293° (WNW) 07:59:06 435.675
CUTE-I 14 Dec 07:49:01 07:49:39 10° 299° (WNW) 07:50:17 437.470
UWE-3 14 Dec 08:07:30 08:11:16 30° 288° (WNW) 08:15:08 435.000/436.395/437.385
CUBEBUG 2 14 Dec 08:07:34 08:10:19 17° 291° (WNW) 08:13:08 437.445
FO-29 14 Dec 08:11:19 08:18:31 46° 262° (W) 08:26:02 435.910
SRMSAT 14 Dec 08:17:35 08:21:44 19° 180° (S) 08:25:53 437.500
O/OREOS (USA 219) 14 Dec 08:30:10 08:34:28 39° 294° (WNW) 08:38:46 437.305
DELFI C3 14 Dec 08:30:40 08:33:43 21° 95° (E) 08:36:44 145.870
ZACube-1 14 Dec 08:33:44 08:37:32 30° 288° (WNW) 08:41:24 437.345
TIGRISAT 14 Dec 08:41:21 08:45:37 67° 77° (ENE) 08:49:51 435.000
UNISAT 6 14 Dec 08:44:26 08:48:46 82° 76° (ENE) 08:53:03 437.425
Max Valier Satellite 14 Dec 08:47:03 08:50:00 22° 96° (E) 08:52:57 145.860
Oscar 11 14 Dec 08:54:22 08:58:11 31° 288° (WNW) 09:02:00 .
AO-73 14 Dec 09:09:15 09:11:37 14° 292° (WNW) 09:14:00 145.935
EO-88 14 Dec 09:15:52 09:19:15 34° 98° (E) 09:22:36 145.990 - 145.960
AIST 2D 14 Dec 09:27:43 09:30:10 18° 71° (ENE) 09:32:38 435.315
PRISM 14 Dec 09:32:16 09:36:26 83° 75° (ENE) 09:40:36 437.425
POLYITAN 1 14 Dec 09:53:02 09:55:05 14° 67° (ENE) 09:57:09 437.675
ISS 14 Dec 09:54:19 09:56:42 19° 129° (SE) 09:59:06 437.550
DELFI C3 14 Dec 10:05:17 10:08:19 21° 289° (WNW) 10:11:19 145.870
SRMSAT 14 Dec 10:06:52 10:10:12 15° 191° (S) 10:13:33 437.500
QB50P2 14 Dec 10:16:53 10:20:31 29° 72° (ENE) 10:24:11 145.880/145.840
Max Valier Satellite 14 Dec 10:20:59 10:23:37 19° 289° (WNW) 10:26:16 145.860
DUCHIFAT 1 14 Dec 10:23:08 10:26:24 23° 70° (ENE) 10:29:42 145.980
NANOSAT C BR1 14 Dec 10:48:24 10:52:28 55° 75° (ENE) 10:56:34 145.865
nSIGHT-1 14 Dec 10:49:16 10:52:26 63° 319° (NW) 10:55:37 .
EO-88 14 Dec 10:51:06 10:52:30 12° 292° (WNW) 10:53:53 145.990 - 145.960
ESTCUBE 1 14 Dec 10:56:33 11:01:01 55° 100° (E) 11:05:27 437.505/2401.250
AIST 2D 14 Dec 11:00:35 11:03:10 19° 265° (W) 11:05:46 435.315
EO-79 14 Dec 11:03:20 11:07:31 81° 258° (WSW) 11:11:43 145.935-145.965
BUGSAT 1 14 Dec 11:06:15 11:08:40 16° 68° (ENE) 11:11:04 437.445
LO-87 14 Dec 11:21:05 11:24:25 39° 285° (WNW) 11:27:44 145.935 - 145.965
POLYITAN 1 14 Dec 11:26:30 11:30:28 41° 261° (W) 11:34:25 437.675
AO-91 14 Dec 11:27:42 11:30:56 18° 70° (ENE) 11:33:59 145.960
ISS 14 Dec 11:30:01 11:33:00 32° 323° (NW) 11:36:00 437.550
Oscar 19 14 Dec 11:30:09 11:33:53 21° 67° (ENE) 11:37:40 437.125/150
SPROUT 14 Dec 11:39:27 11:43:22 35° 98° (E) 11:47:16 437.525
QB50P2 14 Dec 11:53:24 11:56:18 18° 265° (W) 11:59:11 145.880/145.840
DUCHIFAT 1 14 Dec 11:58:37 12:01:56 23° 264° (W) 12:05:15 145.980
RS-15 14 Dec 12:00:47 12:07:34 17° 98° (E) 12:14:20 29.354- 29.394
Gurwin Techsat 1B 14 Dec 12:07:55 12:12:43 36° 70° (ENE) 12:17:32 435.225
YUBILEINY 14 Dec 12:11:03 12:15:42 15° 65° (ENE) 12:20:18 435.215
VELOX 1 14 Dec 12:31:41 12:36:07 87° 101° (E) 12:40:30 145.980
ESTCUBE 1 14 Dec 12:35:28 12:37:17 12° 295° (WNW) 12:39:06 437.505/2401.250
50 SAT 14 Dec 12:39:35 12:41:29 15° 95° (E) 12:43:21 437.505
BUGSAT 1 14 Dec 12:40:03 12:43:43 32° 262° (W) 12:47:22 437.445
AO-91 14 Dec 13:02:18 13:07:05 42° 260° (W) 13:11:30 145.960
Oscar 19 14 Dec 13:08:07 13:12:53 39° 261° (W) 13:17:43 437.125/150
UKube-1 14 Dec 13:13:49 13:17:31 28° 97° (E) 13:21:12 .
SPROUT 14 Dec 13:16:21 13:18:55 16° 292° (WNW) 13:21:29 437.525
NO-84 14 Dec 13:24:05 13:27:47 41° 44° (NE) 13:31:41 435.350 FM
DX 1 14 Dec 13:28:24 13:32:45 75° 103° (ESE) 13:37:03 434.975-435.025
AO-7 14 Dec 13:40:47 13:48:40 50° 66° (ENE) 13:56:34 .
M-CUBED/EXP-1 PRIME 14 Dec 13:44:04 13:47:56 35° 67° (ENE) 13:52:01 437.505
Gurwin Techsat 1B 14 Dec 13:48:28 13:52:39 24° 264° (W) 13:56:53 435.225
YUBILEINY 14 Dec 14:04:50 14:13:43 88° 84° (E) 14:22:28 435.215
RS-15 14 Dec 14:05:52 14:18:09 81° 115° (ESE) 14:30:26 29.354- 29.394
50 SAT 14 Dec 14:11:05 14:13:18 18° 289° (WNW) 14:15:31 437.505
ITAMSAT 1 14 Dec 14:19:19 14:24:19 49° 72° (ENE) 14:29:20 435.822/435.867
MOZHAYETS 4 14 Dec 14:25:24 14:29:43 38° 98° (E) 14:34:02
SO-50 14 Dec 14:28:40 14:32:57 49° 115° (ESE) 14:37:17 436.795
BEESAT 14 Dec 14:44:08 14:48:37 40° 99° (E) 14:53:04 436.000
UKube-1 14 Dec 14:50:08 14:53:20 21° 291° (WNW) 14:56:30 .
NO-84 14 Dec 15:01:57 15:04:53 19° 236° (SW) 15:07:54 435.350 FM
ITUPSAT 1 14 Dec 15:12:04 15:16:52 81° 104° (ESE) 15:21:39 437.325
M-CUBED/EXP-1 PRIME 14 Dec 15:19:26 15:22:22 18° 262° (W) 15:25:25 437.505
DOVE 4 14 Dec 15:31:22 15:36:27 49° 74° (ENE) 15:41:25 437.250
AO-7 14 Dec 15:34:23 15:41:32 32° 262° (W) 15:48:45 .
CUTE-I 14 Dec 15:47:48 15:49:17 11° 62° (ENE) 15:50:46 437.470
CUBESAT XI-V 14 Dec 15:47:55 15:52:38 72° 101° (E) 15:57:18 437.345
ITAMSAT 1 14 Dec 16:00:45 16:03:59 17° 266° (W) 16:07:14 435.822/435.867
MOZHAYETS 4 14 Dec 16:03:30 16:06:33 18° 292° (WNW) 16:09:35
YUBILEINY 14 Dec 16:04:41 16:09:12 15° 282° (WNW) 16:13:42 435.215
XW-2C 14 Dec 16:10:04 16:12:21 16° 69° (ENE) 16:14:39 145.795 - 145.815
SO-50 14 Dec 16:10:50 16:13:39 16° 311° (NW) 16:16:31 436.795
KKS-1 14 Dec 16:16:48 16:20:23 24° 97° (E) 16:23:55 437.445
RS-15 14 Dec 16:21:33 16:32:01 31° 318° (NW) 16:42:26 29.354- 29.394
BEESAT 14 Dec 16:22:51 16:26:02 18° 293° (WNW) 16:29:12 436.000
HO-68 14 Dec 16:25:22 16:29:51 18° 59° (ENE) 16:34:20 435.675
LilacSat-2 14 Dec 16:44:45 16:48:24 48° 75° (ENE) 16:52:07 437.200
XW-2D 14 Dec 16:59:08 17:02:53 74° 77° (ENE) 17:06:40 145.860 - 145.880
STARS 14 Dec 16:59:58 17:03:41 27° 97° (E) 17:07:23 437.465
NUDT-PHONESAT 14 Dec 17:04:14 17:07:49 51° 75° (ENE) 17:11:25 437.300
O/OREOS (USA 219) 14 Dec 17:05:15 17:08:20 18° 60° (ENE) 17:11:24 437.305
KAITUO 1B 14 Dec 17:07:41 17:11:22 63° 76° (ENE) 17:15:05 145.475/437.950
DOVE 4 14 Dec 17:10:49 17:14:14 17° 267° (W) 17:17:39 437.250
XW-2B 14 Dec 17:15:01 17:18:46 69° 259° (W) 17:22:34 145.730 - 145.750
nSIGHT-1 14 Dec 17:19:00 17:21:47 26° 36° (NE) 17:24:33 .
CUTE-I 14 Dec 17:23:11 17:28:34 82° 257° (WSW) 17:33:57 437.470
CUBEBUG 2 14 Dec 17:25:38 17:28:32 18° 70° (ENE) 17:31:24 437.445
XW-2F 14 Dec 17:27:19 17:30:56 49° 261° (W) 17:34:37 145.980 - 146.000
CUBESAT XI-V 14 Dec 17:29:14 17:29:19 10° 296° (WNW) 17:29:24 437.345
PCSat 14 Dec 17:42:57 17:48:11 53° 111° (ESE) 17:53:27 145.827
XW-2C 14 Dec 17:43:00 17:46:15 28° 263° (W) 17:49:32 145.795 - 145.815
SEEDS 14 Dec 17:50:17 17:54:09 36° 73° (ENE) 17:58:04 437.485
KKS-1 14 Dec 17:53:11 17:56:48 25° 290° (WNW) 18:00:25 437.445
ISS 14 Dec 18:00:17 18:03:31 52° 41° (NE) 18:06:42 437.550
HO-68 14 Dec 18:09:33 18:16:44 78° 256° (WSW) 18:23:58 435.675
AAUSAT CUBESAT 2 14 Dec 18:09:50 18:13:15 25° 71° (ENE) 18:16:41 437.432
CUTE 1.7 + AOD 2 14 Dec 18:12:47 18:16:59 65° 259° (W) 18:21:14 437.475
AO-73 14 Dec 18:24:25 18:27:26 20° 70° (ENE) 18:30:29 145.935
STARS 14 Dec 18:36:32 18:39:50 21° 291° (WNW) 18:43:08 437.465
O/OREOS (USA 219) 14 Dec 18:43:45 18:47:50 35° 256° (WSW) 18:51:53 437.305
RS-15 14 Dec 18:45:31 18:50:27 13° 353° (N) 18:55:18 29.354- 29.394
nSIGHT-1 14 Dec 18:55:18 18:57:53 22° 230° (SW) 19:00:28 .
UWE-3 14 Dec 19:00:22 19:04:28 57° 260° (W) 19:08:33 435.000/436.395/437.385
CUBEBUG 2 14 Dec 19:01:13 19:04:56 29° 263° (W) 19:08:35 437.445
BEESAT 3 14 Dec 19:05:12 19:09:01 48° 115° (ESE) 19:12:52 437.485
XW-2A 14 Dec 19:12:53 19:16:00 38° 261° (W) 19:19:10 145.665 - 145.685
STRAND 1 14 Dec 19:24:09 19:29:14 74° 285° (WNW) 19:34:17 437.568
ZACube-1 14 Dec 19:25:23 19:29:26 58° 260° (W) 19:33:32 437.345
FO-29 14 Dec 19:26:24 19:32:26 35° 95° (E) 19:37:47 435.910
SEEDS 14 Dec 19:27:34 19:29:55 15° 267° (W) 19:32:18 437.485
PCSat 14 Dec 19:28:02 19:31:53 19° 308° (NW) 19:35:45 145.827
ISS 14 Dec 19:38:37 19:39:36 11° 234° (SW) 19:40:36 437.550
Oscar 11 14 Dec 19:44:43 19:48:58 64° 259° (W) 19:53:16 .
BEESAT 2 14 Dec 19:45:24 19:49:00 33° 113° (ESE) 19:52:40 435.950
AAUSAT CUBESAT 2 14 Dec 19:45:26 19:48:36 21° 265° (W) 19:51:48 437.432
AO-73 14 Dec 20:00:05 20:03:30 25° 264° (W) 20:06:56 145.935
FALCONSAT 3 14 Dec 20:30:01 20:32:41 19° 151° (SSE) 20:35:21 435.103
TIGRISAT 14 Dec 20:36:54 20:39:54 18° 95° (E) 20:42:56 435.000
UNISAT 6 14 Dec 20:39:52 20:43:15 22° 96° (E) 20:46:41 437.425
BEESAT 3 14 Dec 20:44:44 20:46:47 14° 311° (NW) 20:48:50 437.485
DELFI C3 14 Dec 20:45:31 20:49:28 65° 259° (W) 20:53:28 145.870
Max Valier Satellite 14 Dec 20:54:49 20:58:26 74° 258° (WSW) 21:02:06 145.860
RS-15 14 Dec 21:01:43 21:10:03 21° 30° (NNE) 21:18:03 29.354- 29.394
FO-29 14 Dec 21:11:27 21:17:20 32° 294° (WNW) 21:22:37 435.910
PRISM 14 Dec 21:18:27 21:20:38 14° 94° (E) 21:22:48 437.425
AO-85 14 Dec 21:21:42 21:25:33 80° 298° (WNW) 21:29:36 145.980
EO-88 14 Dec 21:22:46 21:26:14 44° 261° (W) 21:29:44 145.990 - 145.960
BEESAT 2 14 Dec 21:23:59 21:26:48 18° 309° (NW) 21:29:38 435.950
ESTCUBE 1 14 Dec 21:52:35 21:56:35 32° 71° (ENE) 22:00:36 437.505/2401.250
LO-87 14 Dec 21:53:03 21:56:21 38° 74° (ENE) 21:59:40 145.935 - 145.965
FALCONSAT 3 14 Dec 22:07:46 22:11:25 66° 165° (SSE) 22:15:05 435.103
TIGRISAT 14 Dec 22:12:43 22:16:35 32° 288° (WNW) 22:20:32 435.000
UNISAT 6 14 Dec 22:16:12 22:19:53 27° 289° (WNW) 22:23:37 437.425
AIST 2D 14 Dec 22:27:45 22:31:00 34° 98° (E) 22:34:15 435.315
SPROUT 14 Dec 22:29:58 22:32:50 18° 69° (ENE) 22:35:43 437.525
NANOSAT C BR1 14 Dec 22:38:09 22:39:34 11° 93° (E) 22:40:58 145.865
EO-79 14 Dec 22:52:01 22:55:10 20° 95° (E) 22:58:19 145.935-145.965
PRISM 14 Dec 22:52:15 22:55:59 35° 288° (WNW) 22:59:41 437.425
SO-50 14 Dec 23:03:37 23:07:00 19° 50° (NE) 23:10:25 436.795
RS-15 14 Dec 23:13:33 23:25:16 68° 58° (ENE) 23:36:20 29.354- 29.394
POLYITAN 1 14 Dec 23:14:24 23:18:21 38° 99° (E) 23:22:18 437.675
VELOX 1 14 Dec 23:25:00 23:29:17 48° 73° (ENE) 23:33:34 145.980
ESTCUBE 1 14 Dec 23:30:11 23:33:23 19° 266° (W) 23:36:37 437.505/2401.250
